Wind_Speed
132 139 143 140 137 123 104 93 85 83 82 80 77 70 68 70 80 79 73 77 82 83 87 87 91 98 102 105 108 111 116 123 131 133 135 136 133 130 133 136 137 139 137 134
133 141 140 143 141 126 110 100 90 81 77 75 73 66 62 68 71 67 61 74 80 81 82 86 90 91 97 102 104 106 110 116 122 129 133 135 135 133 131 131 134 138 138 136
137 144 143 147 145 127 107 99 91 84 72 71 71 56 57 65 58 55 59 68 74 77 78 80 85 88 90 95 101 104 106 112 119 123 128 132 135 133 131 131 126 127 133 134
138 144 146 150 150 132 108 97 92 81 71 61 74 43 55 50 48 46 54 62 67 71 73 75 77 80 85 90 94 100 104 107 113 120 124 128 132 130 129 128 128 125 123 129
143 149 153 155 155 134 109 98 90 79 69 58 62 40 55 43 40 45 53 57 58 62 65 69 73 76 78 82 89 94 101 106 110 115 119 124 126 129 131 126 126 126 122 125
147 150 158 160 157 136 112 99 88 78 66 58 51 45 44 40 38 43 44 47 50 56 60 62 65 68 71 74 79 86 93 101 107 113 117 119 123 125 128 126 123 124 124 124
147 148 155 155 155 134 113 103 85 74 66 53 47 42 35 34 40 37 36 41 46 49 53 55 57 61 63 66 70 77 85 94 102 109 115 117 120 125 127 127 124 124 122 125
152 153 158 155 157 132 114 103 87 72 63 56 43 38 30 35 37 31 35 36 38 41 43 46 49 52 56 59 63 67 76 86 95 101 110 116 118 121 125 127 126 121 122 123
155 156 161 157 151 132 113 101 85 73 62 51 46 37 29 34 32 31 30 32 34 34 33 37 40 43 48 51 54 58 65 76 87 96 105 110 113 117 120 125 127 121 121 123
159 157 161 155 145 128 110 97 82 72 57 50 44 35 33 29 27 28 26 28 30 28 30 30 32 35 39 44 48 51 56 64 74 85 96 102 108 110 113 119 122 122 120 124
161 162 159 150 144 123 106 94 79 68 53 48 42 29 33 27 24 24 24 25 23 24 26 28 29 32 35 36 41 47 49 54 62 71 84 91 97 103 108 112 115 118 121 123
161 162 157 147 136 118 101 89 77 63 52 44 39 28 31 25 23 23 23 21 19 21 22 22 24 26 29 31 32 37 45 48 50 57 69 80 88 94 101 107 111 113 118 123
164 160 153 140 132 112 97 85 73 60 50 41 38 29 29 25 23 23 23 18 18 17 18 17 21 23 24 25 26 29 35 39 45 48 57 69 82 86 92 100 107 112 116 118
162 156 148 141 121 104 92 81 70 58 48 39 35 32 28 24 22 22 20 18 17 15 17 15 18 20 19 20 21 25 30 35 40 46 53 60 71 80 86 91 99 106 109 114
158 150 142 133 112 97 87 77 67 56 47 39 34 30 27 24 22 21 19 16 13 13 13 12 15 14 16 16 18 19 21 27 36 44 53 57 62 73 80 86 90 98 100 107
152 144 135 123 105 93 85 74 65 56 46 37 33 28 26 23 22 19 18 12 10 9 7 10 11 8 11 12 12 13 18 23 30 38 45 49 55 64 71 78 82 88 96 105
143 136 126 115 100 89 83 72 64 55 46 37 31 27 24 21 21 17 16 10 8 5 5 5 5 5 5 9 12 14 18 24 27 29 35 43 51 57 63 71 81 88 95 106
131 124 120 108 97 88 81 71 62 53 44 36 28 24 22 20 20 17 14 9 8 1 2 3 4 8 8 10 15 19 23 26 28 33 37 39 42 45 53 63 75 86 96 102
119 116 114 102 92 84 78 70 60 49 44 37 27 20 19 18 17 16 10 8 8 3 5 8 9 12 13 14 16 19 25 32 37 38 43 43 42 45 49 56 65 73 89 98
112 109 107 96 88 83 73 67 58 47 42 35 28 20 16 15 15 16 9 9 9 7 9 12 14 17 16 17 20 24 30 39 41 44 43 46 49 48 51 53 61 74 85 94
106 105 100 92 84 80 71 64 56 45 39 33 28 22 16 13 12 16 11 10 11 10 11 16 19 23 22 21 26 29 37 46 52 50 50 52 57 58 59 61 64 67 73 81
100 101 93 87 81 76 68 62 54 44 36 32 26 23 17 11 11 14 14 11 12 13 14 18 23 29 27 24 25 28 42 50 56 61 64 62 67 62 66 65 67 75 66 82
96 96 89 82 78 72 65 59 51 44 35 30 25 22 18 13 11 13 17 12 15 16 17 20 26 33 32 29 28 30 48 53 59 66 70 73 74 79 68 69 76 78 80 69
95 91 84 78 75 69 63 56 48 43 35 29 24 22 20 15 13 13 18 17 18 19 20 21 27 32 40 35 33 33 47 50 61 66 76 80 81 90 89 86 81 86 87 83
94 87 81 76 74 67 60 53 46 39 34 29 23 21 20 19 15 15 18 23 20 22 24 24 26 33 38 44 44 43 47 51 59 68 78 86 90 96 100 98 98 96 95 97
89 84 79 76 72 64 58 51 45 38 32 30 24 21 22 21 19 17 19 23 25 25 27 30 29 30 38 45 51 54 56 56 61 70 79 87 100 102 104 107 102 104 103 104
Wind_Direction
341 340 341 343 344 341 333 328 322 314 306 301 294 291 280 276 269 269 268 264 259 253 251 250 248 243 240 240 239 237 236 236 235 237 236 237 235 234 233 232 229 228 227 228
343 340 341 343 344 342 336 330 324 317 308 301 294 290 285 277 274 271 265 259 257 254 250 248 246 242 239 237 236 236 234 233 234 233 233 235 235 233 232 231 230 229 227 228
341 340 341 342 345 342 338 330 326 319 313 307 296 294 286 276 280 274 263 258 257 254 251 247 246 244 240 237 235 233 232 230 230 231 231 232 233 233 231 230 228 228 227 226
340 341 341 342 345 343 338 333 327 321 318 312 300 304 285 283 278 272 262 257 256 256 253 250 246 242 240 237 234 233 231 229 229 229 227 228 229 230 229 228 228 227 224 223
340 340 340 341 343 342 339 335 329 325 321 315 307 306 289 287 276 266 261 260 259 257 255 252 250 245 239 236 234 232 231 229 227 229 228 226 226 227 228 226 225 225 225 222
339 340 340 341 343 343 339 335 333 328 323 317 311 306 295 296 279 267 265 263 259 256 255 253 251 249 246 239 235 234 232 231 228 228 227 225 224 225 224 225 221 222 222 222
338 341 340 342 344 344 340 336 335 329 325 321 317 306 304 293 279 280 270 261 258 256 255 254 252 250 247 243 237 232 230 230 229 228 227 226 224 223 221 222 220 219 220 221
338 340 340 342 343 343 341 337 334 330 327 324 317 308 304 286 283 277 271 267 262 259 255 254 252 250 250 245 240 235 230 228 227 227 228 227 224 223 222 220 218 215 216 218
337 340 341 341 342 342 340 338 334 330 330 325 315 314 305 288 290 285 277 269 265 263 263 259 256 251 249 248 244 237 233 229 229 226 225 226 225 225 221 221 218 214 211 214
336 338 339 340 343 341 339 337 334 332 333 322 317 321 302 298 296 287 280 274 273 272 268 263 257 255 250 245 244 241 235 231 229 227 227 226 225 222 224 222 220 216 210 212
337 337 339 338 342 341 339 337 335 335 334 323 322 322 303 308 297 291 286 277 274 272 269 266 261 256 254 249 241 240 238 233 228 225 225 227 225 223 221 221 220 218 214 209
335 334 338 338 341 340 339 338 336 338 333 325 320 323 312 311 301 300 294 288 279 274 274 270 267 263 258 251 246 240 237 237 230 225 222 223 225 223 221 220 218 216 217 213
334 333 337 337 340 340 340 338 337 338 333 326 324 323 316 310 309 304 297 296 289 286 281 283 277 271 265 261 252 241 235 232 229 222 220 218 219 221 220 218 217 214 213 216
333 334 335 336 341 340 340 339 338 339 334 328 331 323 322 314 312 304 302 300 299 296 293 285 278 273 269 258 250 236 229 223 219 216 214 214 215 215 215 215 216 214 211 212
332 333 333 335 340 339 340 339 338 339 334 330 330 328 323 320 312 307 298 303 300 294 297 301 282 275 265 256 245 231 225 218 213 211 211 210 210 211 212 211 212 213 212 208
330 331 333 336 340 340 341 340 339 339 335 329 329 330 322 320 311 306 298 306 302 292 312 290 280 271 269 250 231 218 210 206 212 208 209 209 206 207 207 207 208 210 206 205
329 330 333 338 340 340 341 340 340 339 335 330 329 327 325 320 310 308 298 303 295 305 303 276 242 227 227 221 201 195 199 195 192 192 196 201 202 203 202 202 202 202 201 202
329 329 332 339 339 340 340 339 339 338 334 326 326 324 322 316 307 300 293 292 279 277 246 194 190 172 169 193 198 189 183 180 178 177 179 188 193 198 199 198 198 199 199 199
328 328 332 339 338 339 339 337 338 337 332 325 320 321 318 311 302 290 288 279 257 189 177 161 169 178 165 174 186 190 181 169 165 169 172 169 177 183 186 191 194 194 196 198
327 328 333 337 337 339 339 336 336 336 331 325 319 311 313 308 300 283 275 267 242 194 173 159 172 174 165 177 176 181 180 165 158 158 163 170 164 169 172 177 185 189 192 197
326 328 335 335 337 337 337 335 333 335 329 325 317 310 301 298 289 280 265 251 230 198 175 164 172 173 176 184 181 180 181 172 159 153 158 162 160 158 164 167 173 181 188 193
325 328 335 333 335 337 336 334 331 331 329 322 316 307 294 285 279 269 263 238 223 205 182 169 171 173 184 183 188 183 184 172 166 158 157 158 156 157 165 163 167 170 173 189
325 329 333 333 334 336 334 332 329 327 327 319 310 301 291 276 269 261 257 236 221 209 191 177 180 178 184 184 186 184 186 177 170 167 163 160 165 152 158 161 172 175 180 191
324 330 332 331 333 334 333 330 327 324 323 317 307 297 283 274 262 252 250 240 223 208 200 189 182 188 183 183 186 189 186 190 182 175 169 167 168 164 162 167 173 177 180 185
325 330 331 331 332 333 331 328 324 321 319 314 302 292 279 266 260 253 240 244 226 216 202 196 192 189 191 181 182 189 189 191 188 180 177 176 172 173 172 176 178 181 190 195
327 329 329 330 330 331 329 326 321 318 316 310 300 288 279 268 257 249 248 237 237 222 212 199 197 199 193 191 186 187 193 196 191 187 185 184 179 180 181 182 184 186 192 199
Height
10368 10341 10312 10288 10269 10248 10221 10203 10184 10164 10138 10122 10111 10109 10103 10098 10080 10085 10098 10098 10096 10102 10108 10119 10131 10142 10149 10162 10177 10194 10211 10229 10246 10265 10287 10308 10336 10360 10385 10415 10445 10472 10495 10521
10351 10323 10297 10274 10247 10223 10196 10169 10157 10139 10116 10097 10084 10083 10079 10065 10059 10067 10077 10068 10067 10072 10082 10089 10095 10108 10120 10131 10144 10160 10179 10196 10213 10233 10251 10272 10297 10326 10353 10381 10409 10439 10464 10490
10323 10304 10281 10253 10231 10205 10184 10148 10128 10104 10096 10072 10056 10063 10054 10040 10047 10049 10047 10043 10040 10044 10053 10061 10068 10080 10093 10105 10117 10132 10147 10162 10174 10192 10214 10238 10259 10288 10319 10348 10374 10399 10426 10452
10311 10288 10256 10236 10207 10175 10158 10132 10103 10085 10071 10060 10021 10044 10024 10028 10026 10029 10022 10019 10020 10022 10030 10036 10045 10055 10065 10077 10090 10105 10118 10134 10147 10159 10180 10202 10225 10251 10281 10311 10338 10365 10392 10418
10289 10258 10238 10217 10182 10155 10132 10111 10086 10065 10050 10039 10013 10024 10000 10011 10010 10006 10001 10000 10005 10006 10011 10016 10020 10028 10038 10052 10064 10075 10090 10104 10119 10131 10151 10172 10194 10221 10243 10273 10305 10333 10360 10386
10273 10241 10204 10189 10166 10130 10107 10090 10068 10046 10034 10019 10007 9998 9992 9990 9989 9988 9989 9988 9988 9988 9992 9997 10002 10008 10017 10029 10042 10054 10066 10079 10093 10105 10120 10142 10165 10188 10211 10239 10270 10298 10329 10355
10268 10237 10203 10166 10150 10120 10089 10067 10055 10034 10016 10007 9998 9986 9982 9978 9972 9975 9975 9972 9972 9974 9976 9980 9986 9991 9997 10006 10017 10028 10039 10052 10067 10080 10094 10114 10136 10153 10177 10203 10233 10267 10298 10327
10231 10216 10185 10156 10120 10097 10073 10052 10032 10021 10006 9992 9986 9976 9972 9965 9961 9964 9961 9961 9961 9962 9965 9967 9972 9976 9981 9987 9996 10006 10016 10024 10038 10055 10069 10088 10109 10130 10152 10175 10202 10236 10269 10300
10209 10196 10162 10132 10112 10081 10063 10043 10022 10006 9993 9982 9972 9968 9963 9954 9954 9952 9953 9951 9950 9951 9954 9956 9959 9962 9966 9972 9978 9988 9996 10004 10014 10029 10041 10059 10085 10107 10129 10151 10175 10206 10238 10268
10190 10182 10145 10121 10101 10071 10049 10030 10014 9995 9985 9970 9963 9958 9950 9948 9945 9943 9944 9942 9941 9943 9943 9945 9947 9950 9953 9957 9962 9969 9977 9986 9995 10009 10024 10039 10058 10082 10108 10129 10156 10183 10213 10237
10171 10152 10142 10108 10086 10064 10041 10019 10002 9988 9976 9961 9954 9951 9941 9941 9938 9936 9935 9935 9936 9935 9935 9936 9937 9938 9941 9944 9949 9953 9960 9968 9979 9993 10005 10021 10039 10061 10081 10105 10134 10166 10186 10210
10165 10142 10127 10099 10080 10052 10031 10010 9992 9978 9966 9955 9947 9945 9936 9934 9931 9929 9927 9929 9929 9929 9928 9928 9927 9928 9930 9932 9938 9944 9948 9955 9964 9977 9989 10003 10019 10039 10061 10081 10107 10139 10166 10187
10151 10126 10116 10096 10064 10041 10021 10001 9984 9972 9958 9949 9941 9939 9932 9928 9925 9922 9921 9923 9921 9921 9920 9921 9920 9920 9921 9924 9927 9931 9937 9944 9950 9960 9972 9985 9997 10017 10039 10062 10082 10109 10138 10167
10135 10108 10090 10073 10056 10034 10013 9995 9978 9965 9953 9944 9937 9931 9928 9924 9921 9918 9918 9917 9917 9916 9914 9915 9914 9913 9914 9915 9916 9918 9923 9930 9937 9945 9956 9968 9982 9999 10017 10041 10065 10089 10118 10143
10119 10099 10078 10061 10045 10025 10007 9988 9970 9958 9947 9939 9932 9926 9922 9919 9916 9915 9914 9914 9914 9912 9911 9911 9907 9908 9907 9910 9910 9914 9921 9926 9929 9935 9943 9956 9971 9986 10004 10025 10049 10074 10102 10132
10103 10082 10062 10045 10029 10010 9994 9979 9963 9950 9941 9934 9927 9923 9918 9916 9912 9912 9911 9911 9910 9909 9910 9906 9906 9907 9907 9908 9910 9912 9917 9920 9924 9932 9943 9955 9965 9977 9994 10015 10041 10065 10094 10120
10088 10067 10049 10033 10016 9999 9983 9969 9956 9944 9935 9928 9923 9919 9914 9912 9909 9910 9908 9909 9907 9908 9906 9906 9906 9904 9906 9909 9908 9910 9912 9916 9922 9934 9943 9952 9961 9975 9992 10009 10030 10053 10083 10103
10074 10052 10034 10020 10004 9987 9973 9960 9950 9939 9931 9924 9920 9914 9910 9909 9906 9907 9907 9906 9906 9907 9905 9905 9905 9904 9905 9908 9907 9907 9911 9917 9925 9930 9936 9948 9964 9980 9994 10010 10026 10044 10065 10097
10059 10038 10022 10009 9995 9981 9966 9953 9944 9935 9926 9919 9915 9911 9907 9906 9904 9905 9904 9904 9904 9906 9905 9904 9905 9903 9906 9908 9908 9911 9916 9919 9923 9931 9935 9948 9960 9973 9990 10008 10029 10050 10070 10095
10046 10028 10012 9999 9986 9972 9959 9946 9937 9929 9921 9914 9909 9906 9903 9902 9902 9901 9902 9902 9902 9904 9905 9904 9906 9904 9908 9911 9913 9916 9920 9926 9930 9935 9941 9950 9962 9976 9993 10011 10030 10049 10071 10089
10032 10015 10002 9986 9975 9963 9951 9940 9929 9923 9916 9909 9904 9901 9898 9898 9898 9897 9900 9900 9901 9902 9905 9905 9907 9905 9906 9912 9916 9919 9921 9927 9930 9936 9943 9955 9968 9981 9996 10014 10034 10055 10075 10099
10022 10005 9995 9979 9968 9954 9941 9932 9921 9915 9909 9904 9899 9896 9894 9893 9894 9894 9895 9897 9898 9900 9904 9906 9908 9906 9905 9911 9918 9927 9925 9928 9931 9934 9946 9959 9972 9989 9998 10012 10030 10046 10067 10088
10009 9997 9985 9972 9958 9946 9933 9923 9914 9906 9902 9897 9893 9890 9889 9888 9889 9890 9889 9894 9894 9896 9901 9905 9905 9908 9906 9912 9920 9928 9927 9930 9935 9940 9948 9959 9969 9984 10002 10016 10029 10046 10061 10074
9998 9984 9973 9960 9948 9935 9923 9914 9907 9898 9893 9891 9887 9884 9883 9881 9882 9884 9886 9888 9890 9892 9895 9901 9905 9908 9909 9913 9921 9927 9931 9933 9936 9944 9951 9957 9971 9976 9994 10008 10025 10039 10052 10060
9985 9972 9958 9947 9935 9925 9914 9905 9898 9891 9885 9882 9880 9877 9876 9875 9875 9877 9880 9882 9884 9887 9890 9895 9902 9905 9910 9914 9919 9925 9930 9934 9940 9947 9951 9957 9967 9974 9982 9992 10008 10024 10033 10044
9971 9959 9945 9935 9923 9914 9903 9895 9888 9882 9877 9873 9872 9870 9868 9867 9868 9870 9873 9877 9878 9880 9884 9887 9893 9900 9905 9912 9916 9921 9926 9932 9940 9946 9948 9955 9958 9966 9976 9985 9994 10005 10014 10026